Location: Ottawa
(45.4167°N, 75.7000°W)
Time: 06:19:29
(UTC-05:00)

Tiangong 2 - Pass Details

Date: 16 October 2017
Orbit: 386 x 390 km, 42.8° (Epoch: 13 December)

Event Time Altitude Azimuth Distance (km) Brightness Sun altitude
Exits shadow 04:43:16 14° 102° (ESE) 1,195 4.2 -28.1°
Drops below altitude 10° 04:43:50 10° 99° (E) 1,422 4.7 -28.0°
Sets 04:45:57 0° 94° (E) 2,279 6.0 -27.7°
